IRNSS-1A

Last updated on Mon Sep 21 2026 00:02:59 GMT+0000 (Coordinated Universal Time)

1 39199U 13034A 26261.90167604 .00000081 00000+0 00000+0 0 9999 2 39199 35.9275 62.5314 0020137 178.5932 136.3764 1.00276500 48309
UTC large
Height (km)
Speed (km/s)
/
Latitude / Longitude
Inclination (degrees)
Orbital Period (minutes)
Azimuth
Elevation
Range (km)
Doppler Factor

Next 0 passes for location: London (51.5072 / 0.1276)

No passes found over London.
IRNSS-1A